CW5066 Weather Reports


time (UTC)temp
C
wind
direction
speed
KPH
gust
KPH
rain 1hr
cm
rain 24hr
cm
rain mn
cm
humidity
%
barometer
mb
20260902141515 13 203 4.8 12.9 0.00 0.00 0.00 44 1027.3
20260902140535 12 203 6.4 14.5 0.00 0.00 0.00 45 1027.3
20260902135515 12 203 9.7 14.5 0.00 0.00 0.00 45 1027.4
20260902134517 12 180 9.7 19.3 0.00 0.00 0.00 45 1026.7
20260902133517 12 203 8.0 17.7 0.00 0.00 0.00 46 1027.9
20260902132537 11 203 8.0 14.5 0.00 0.00 0.00 46 1027.9
20260902131517 11 225 3.2 8.0 0.00 0.00 0.00 46 1027.8
20260902130537 11 203 3.2 6.4 0.00 0.00 0.00 46 1027.8
20260902125517 12 225 4.8 9.7 0.00 0.00 0.00 46 1027.9
20260902124517 11 203 3.2 6.4 0.00 0.00 0.00 47 1027.8
20260902123517 11 225 3.2 4.8 0.00 0.00 0.00 47 1027.7
20260902122517 12 203 9.7 14.5 0.00 0.00 0.00 46 1027.6
20260902121517 12 203 8.0 16.1 0.00 0.00 0.00 46 1027.6
20260902120537 12 225 12.9 20.9 0.00 0.00 0.00 43 1028.5
20260902115557 12 225 14.5 20.9 0.00 0.00 0.00 43 1028.4
20260902114517 12 225 17.7 29.0 0.00 0.00 0.00 47 1027.7
20260902113517 11 225 9.7 19.3 0.00 0.00 0.00 52 1028.5
20260902112516 11 225 12.9 24.1 0.00 0.00 0.00 55 1027.9
20260902111537 10 225 9.7 19.3 0.00 0.00 0.00 56 1028.0
20260902110516 10 225 8.0 16.1 0.00 0.00 0.00 55 1027.5
20260902105516 11 248 9.7 19.3 0.00 0.00 0.00 53 1028.0
20260902104517 11 248 9.7 16.1 0.00 0.00 0.00 51 1028.1
20260902103536 11 225 9.7 16.1 0.00 0.00 0.00 51 1028.0
20260902102516 11 248 6.4 12.9 0.00 0.00 0.00 53 1028.1
20260902101516 11 225 4.8 8.0 0.00 0.00 0.00 54 1028.3
20260902100517 12 225 3.2 6.4 0.00 0.00 0.00 54 1028.4
20260902095517 12 203 3.2 4.8 0.00 0.00 0.00 54 1028.5
20260902094516 12 203 3.2 3.2 0.00 0.00 0.00 53 1028.7
20260902093516 12 180 3.2 9.7 0.00 0.00 0.00 53 1028.2
20260902092517 12 180 4.8 11.3 0.00 0.00 0.00 54 1028.2
20260902091517 12 180 3.2 6.4 0.00 0.00 0.00 55 1028.3
20260902090516 12 203 4.8 8.0 0.00 0.00 0.00 56 1027.2
20260902085517 11 180 6.4 11.3 0.00 0.00 0.00 57 1027.2
20260902084517 11 203 1.6 3.2 0.00 0.00 0.00 57 1027.3
20260902083516 12 203 3.2 4.8 0.00 0.00 0.00 56 1028.6
20260902082537 12 180 1.6 4.8 0.00 0.00 0.00 55 1028.7
20260902081537 12 203 1.6 4.8 0.00 0.00 0.00 54 1028.8
20260902080516 13 180 3.2 6.4 0.00 0.00 0.00 53 1029.6
20260902075537 13 180 3.2 6.4 0.00 0.00 0.00 53 1029.7
20260902074516 13 180 1.6 6.4 0.00 0.00 0.00 53 1029.7
20260902073517 13 203 1.6 3.2 0.00 0.00 0.00 53 1029.7
20260902072537 13 180 1.6 3.2 0.00 0.00 0.00 52 1029.6
20260902071516 13 203 1.6 3.2 0.00 0.00 0.00 52 1029.8
20260902070516 13 203 1.6 4.8 0.00 0.00 0.00 51 1029.2
20260902065516 13 180 3.2 4.8 0.00 0.00 0.00 51 1029.1
20260902064516 13 180 3.2 3.2 0.00 0.00 0.00 51 1029.3
20260902063517 13 0.0 3.2 0.00 0.00 0.00 51 1029.8
20260902062516 13 0.0 1.6 0.00 0.00 0.00 51 1029.0
20260902061516 13 180 1.6 4.8 0.00 0.00 0.00 50 1029.7
20260902060516 13 158 1.6 3.2 0.00 0.00 0.00 51 1029.2
20260902055517 13 0.0 1.6 0.00 0.00 0.00 51 1029.3
20260902054517 13 0.0 3.2 0.00 0.00 0.00 51 1029.2
20260902053517 13 180 1.6 3.2 0.00 0.00 0.00 51 1028.6
20260902052517 13 0.0 0.0 0.00 0.00 0.00 52 1028.7
20260902051516 13 0.0 0.0 0.00 0.00 0.00 52 1028.6
20260902050516 13 135 1.6 3.2 0.00 0.00 0.00 53 1028.2
20260902045516 12 0.0 1.6 0.00 0.00 0.00 54 1028.3
20260902044517 12 68 1.6 3.2 0.00 0.00 0.00 54 1028.2
20260902043516 12 68 3.2 4.8 0.00 0.00 0.00 54 1027.8
20260902042516 13 68 3.2 4.8 0.00 0.00 0.00 54 1028.0
20260902041516 13 68 3.2 3.2 0.00 0.00 0.00 54 1028.0
20260902040536 13 90 3.2 6.4 0.00 0.00 0.00 53 1027.5
20260902035516 13 45 3.2 6.4 0.00 0.00 0.00 52 1028.0
20260902034516 13 68 3.2 4.8 0.00 0.00 0.00 52 1027.9
20260902033536 13 90 1.6 3.2 0.00 0.00 0.00 54 1026.9
20260902032516 14 90 1.6 4.8 0.00 0.00 0.00 55 1027.0
20260902031516 14 68 1.6 3.2 0.00 0.00 0.00 55 1027.6
20260902030516 15 90 1.6 3.2 0.00 0.00 0.00 57 1027.7
20260902025516 15 0.0 4.8 0.00 0.03 0.00 50 1027.6
20260902024516 15 293 1.6 3.2 0.00 0.03 0.00 51 1027.5
20260902023536 15 270 1.6 8.0 0.00 0.05 0.00 49 1027.4
20260902022516 15 0.0 3.2 0.00 0.10 0.00 48 1027.2
20260902021556 15 0.0 0.0 0.00 0.15 0.00 47 1027.1
20260902020516 15 0.0 0.0 0.00 0.20 0.00 47 1027.7
20260902015516 16 0.0 0.0 0.00 0.28 0.00 47 1027.8
20260902014516 16 0.0 3.2 0.00 0.28 0.00 47 1027.7
20260902013516 16 0.0 3.2 0.00 0.28 0.00 47 1027.8
20260902012516 17 0.0 4.8 0.00 0.28 0.00 45 1027.9
20260902011516 18 113 1.6 4.8 0.00 0.28 0.00 44 1028.7
20260902010536 18 113 1.6 4.8 0.00 0.28 0.00 42 1029.5
20260902005536 18 90 3.2 11.3 0.00 0.28 0.00 42 1029.5
20260902004516 18 0.0 4.8 0.00 0.28 0.00 44 1029.4
20260902003516 17 113 1.6 6.4 0.00 0.28 0.00 46 1029.5
20260902002516 17 0.0 4.8 0.00 0.28 0.00 45 1029.5
20260902001536 18 90 3.2 9.7 0.00 0.28 0.00 44 1029.4
20260902000555 18 0.0 3.2 0.00 0.28 0.00 43 1029.4
20260901235516 18 90 1.6 8.0 0.00 0.36 0.00 41 1029.3
20260901234515 19 90 3.2 9.7 0.00 0.41 0.00 39 1029.7
20260901233516 20 90 3.2 9.7 0.00 0.41 0.00 36 1030.2
20260901232515 21 113 4.8 12.9 0.00 0.41 0.00 36 1030.2
20260901231536 20 180 3.2 6.4 0.00 0.41 0.00 37 1030.3
20260901230535 20 203 8.0 17.7 0.00 0.41 0.00 37 1029.6
20260901225516 20 293 12.9 22.5 0.00 0.41 0.00 34 1029.2
20260901224516 20 225 12.9 29.0 0.00 0.41 0.00 35 1029.4
20260901223515 20 270 8.0 17.7 0.00 0.41 0.00 33 1029.4
20260901222515 20 293 3.2 9.7 0.00 0.41 0.00 35 1029.5
20260901221535 19 248 11.3 24.1 0.00 0.41 0.00 34 1028.8
20260901220515 19 293 9.7 24.1 0.00 0.41 0.00 38 1029.2
20260901215515 19 248 9.7 22.5 0.00 0.41 0.00 36 1029.2
20260901214516 18 248 12.9 25.7 0.00 0.41 0.00 36 1029.2
20260901213515 18 225 12.9 22.5 0.00 0.41 0.00 37 1028.7
20260901212515 17 248 8.0 19.3 0.00 0.41 0.00 41 1028.3
20260901211517 17 225 11.3 24.1 0.00 0.41 0.00 38 1028.1
20260901210517 16 248 9.7 17.7 0.00 0.41 0.00 41 1027.0
20260901205517 15 225 12.9 33.8 0.00 0.41 0.00 43 1027.4
20260901204517 16 225 16.1 29.0 0.00 0.41 0.00 44 1027.4
20260901203517 17 203 8.0 17.7 0.00 0.41 0.00 43 1028.5
20260901202517 18 270 8.0 22.5 0.00 0.41 0.00 40 1029.1
20260901201517 17 225 8.0 17.7 0.00 0.41 0.00 44 1028.6
20260901200537 17 270 6.4 14.5 0.00 0.41 0.00 44 1029.3
20260901195517 17 270 6.4 16.1 0.00 0.41 0.00 43 1029.2
20260901194517 18 225 4.8 12.9 0.00 0.41 0.00 42 1029.1
20260901193517 17 225 8.0 17.7 0.00 0.41 0.00 43 1028.7
20260901192517 17 225 8.0 17.7 0.00 0.41 0.00 38 1028.4
20260901191517 17 203 4.8 19.3 0.00 0.41 0.00 40 1029.0
20260901190537 17 225 6.4 16.1 0.00 0.41 0.00 42 1028.5
20260901185517 17 203 4.8 14.5 0.00 0.41 0.00 45 1028.9
20260901184517 16 248 6.4 12.9 0.00 0.41 0.00 46 1028.4
20260901183517 16 248 4.8 12.9 0.00 0.41 0.00 45 1029.0
20260901182517 16 248 4.8 14.5 0.00 0.41 0.00 46 1029.2
20260901181517 17 293 9.7 19.3 0.00 0.41 0.00 41 1029.0
20260901180516 16 293 8.0 27.4 0.00 0.41 0.00 41 1029.1
20260901175516 17 225 12.9 25.7 0.00 0.41 0.00 41 1029.3
20260901174517 16 270 4.8 11.3 0.00 0.41 0.00 43 1029.3
20260901173516 16 203 9.7 24.1 0.00 0.41 0.00 42 1028.5
20260901172517 15 270 4.8 11.3 0.00 0.41 0.00 47 1028.0
20260901171517 16 225 9.7 20.9 0.00 0.41 0.00 45 1028.7
20260901170517 15 203 14.5 29.0 0.00 0.41 0.00 45 1027.8
20260901165516 15 225 14.5 24.1 0.00 0.41 0.00 45 1027.7
20260901164517 15 225 12.9 27.4 0.00 0.41 0.00 46 1027.7
20260901163517 15 225 11.3 20.9 0.00 0.41 0.00 49 1027.6
20260901162516 15 203 9.7 19.3 0.00 0.41 0.00 50 1026.7
20260901161516 14 203 6.4 12.9 0.00 0.41 0.00 56 1027.0
20260901160517 13 203 11.3 20.9 0.00 0.41 0.00 57 1026.4
20260901155516 13 203 14.5 22.5 0.00 0.41 0.00 61 1026.2
20260901154516 12 203 6.4 14.5 0.00 0.41 0.00 66 1026.4
20260901153517 11 225 3.2 8.0 0.00 0.41 0.00 72 1026.2
20260901152516 11 248 4.8 11.3 0.00 0.41 0.00 72 1025.5
20260901151516 11 225 6.4 14.5 0.00 0.41 0.00 70 1025.4
20260901150516 11 225 9.7 16.1 0.00 0.41 0.00 71 1025.2
20260901145516 11 225 6.4 17.7 0.00 0.41 0.00 73 1025.3
20260901144516 10 248 4.8 8.0 0.00 0.41 0.00 75 1025.4
20260901143516 10 225 4.8 9.7 0.00 0.41 0.00 74 1025.5
20260901142556 10 270 4.8 11.3 0.00 0.41 0.00 74 1025.4